Bangkok (Don Mueang), Thailand

4:42 PM +07 on March 24, 2017 (GMT +0700)
Bangkok International

Weather History for VTBD - September, 2013

Change the Weather History Date:

Sunday, September 22, 2013

  Actual Average Record
Temperature  
Mean Temperature 85 °F -  
Max Temperature 92 °F 89 °F 95 °F (1996)
Min Temperature 78 °F 76 °F 73 °F (2000)
Cooling Degree Days 20    
Growing Degree Days 35 (Base 50)    
Moisture  
Dew Point 74 °F    
Average Humidity 73    
Maximum Humidity 94    
Minimum Humidity 42    
Precipitation  
Precipitation 0.59 in 0.27 in - ()
Sea Level Pressure  
Sea Level Pressure 29.65 in    
Wind  
Wind Speed 6 mph ()    
Max Wind Speed 23 mph    
Max Gust Speed -    
Visibility 6.0 miles    
Events Rain , Thunderstorm    
Averages and records for this station are not official NWS values.
T = Trace of Precipitation, MM = Missing Value Source: Averaged Metar Reports

Daily Weather History Graph

Daily Weather History Graph

Search for Another Location

Airport or City:

Trip Planner

Search our weather history database for the weather conditions in past years. The results will help you decide how hot, cold, wet, or windy it might be!

Date:

Astronomy

Sep. 22, 2013 Rise Set
Actual Time 6:06 AM +07 6:13 PM +07
Civil Twilight 5:45 AM +07 6:35 PM +07
Nautical Twilight 5:20 AM +07 6:59 PM +07
Astronomical Twilight 4:55 AM +07 7:24 PM +07
Moon 8:19 PM +07 (9/22) 8:21 AM +07 (9/22)
Length of Visible Light 12h 49m
Length of Day
12h 07m
Waning Gibbous, 91% of the Moon is Illuminated
Sep 22
Waning Gibbous
Sep 27
Last Quarter
Oct 5
New
Oct 12
First Quarter
Oct 19
Full

Hourly Weather History & Observations

Time (+07) Temp. Heat Index Dew Point Humidity Pressure Visibility Wind Dir Wind Speed Gust Speed Precip Events Conditions
12:00 AM 80.6 °F 86.2 °F 75.2 °F 84% 29.68 in 6.2 mi West 4.6 mph - N/A   Mostly Cloudy
12:30 AM 80.6 °F 86.2 °F 75.2 °F 84% 29.68 in 6.2 mi West 4.6 mph - N/A   Mostly Cloudy
1:00 AM 81 °F - 74 °F 75% 29.69 in 6 mi West 9.2 mph - -   Scattered Clouds
1:00 AM 80.6 °F 86.2 °F 75.2 °F 84% 29.68 in 6.2 mi West 9.2 mph - N/A   Mostly Cloudy
1:30 AM 80.6 °F 86.2 °F 75.2 °F 84% 29.68 in 6.2 mi West 6.9 mph - N/A   Mostly Cloudy
2:00 AM 80.6 °F 85.4 °F 73.4 °F 79% 29.65 in 6.2 mi WSW 4.6 mph - N/A   Mostly Cloudy
2:30 AM 80.6 °F 85.4 °F 73.4 °F 79% 29.65 in 6.2 mi WSW 5.8 mph - N/A   Mostly Cloudy
3:00 AM 80.6 °F 85.4 °F 73.4 °F 79% 29.65 in 6.2 mi WSW 4.6 mph - N/A   Mostly Cloudy
3:30 AM 80.6 °F 85.4 °F 73.4 °F 79% 29.65 in 6.2 mi WSW 5.8 mph - N/A   Mostly Cloudy
4:00 AM 80.6 °F 85.4 °F 73.4 °F 79% 29.65 in 6.2 mi WSW 5.8 mph - N/A   Mostly Cloudy
4:30 AM 80.6 °F 85.4 °F 73.4 °F 79% 29.65 in 6.2 mi WSW 5.8 mph - N/A   Mostly Cloudy
5:00 AM 80.6 °F 85.4 °F 73.4 °F 79% 29.65 in 6.2 mi WSW 5.8 mph - N/A   Mostly Cloudy
5:30 AM 80.6 °F 85.4 °F 73.4 °F 79% 29.65 in 6.2 mi WSW 5.8 mph - N/A   Mostly Cloudy
6:00 AM 80.6 °F 85.4 °F 73.4 °F 79% 29.65 in 6.2 mi West 3.5 mph - N/A   Mostly Cloudy
6:30 AM 80.6 °F 85.4 °F 73.4 °F 79% 29.65 in 6.2 mi West 4.6 mph - N/A   Mostly Cloudy
7:00 AM 80 °F - 74 °F 77% 29.69 in 6 mi WSW 4.6 mph - -   Overcast
7:00 AM 78.8 °F - 73.4 °F 83% 29.68 in 6.2 mi WSW 4.6 mph - N/A   Mostly Cloudy
7:30 AM 78.8 °F - 73.4 °F 83% 29.68 in 6.2 mi West 3.5 mph - N/A   Mostly Cloudy
8:00 AM 82.4 °F 88.2 °F 73.4 °F 74% 29.68 in 6.2 mi West 5.8 mph - N/A   Mostly Cloudy
8:30 AM 84.2 °F 90.9 °F 73.4 °F 70% 29.68 in 6.2 mi WSW 4.6 mph - N/A   Mostly Cloudy
9:00 AM 86.0 °F 91.8 °F 71.6 °F 62% 29.71 in 6.2 mi WNW 8.1 mph - N/A   Mostly Cloudy
9:30 AM 86.0 °F 91.8 °F 71.6 °F 62% 29.71 in 6.2 mi WNW 6.9 mph - N/A   Mostly Cloudy
10:00 AM 86.0 °F 91.8 °F 71.6 °F 62% 29.68 in 6.2 mi NW 6.9 mph - N/A   Mostly Cloudy
10:30 AM 86.0 °F 91.8 °F 71.6 °F 62% 29.68 in 6.2 mi WNW 9.2 mph - N/A   Mostly Cloudy
11:00 AM 87.8 °F 95.6 °F 73.4 °F 62% 29.68 in 6.2 mi WNW 6.9 mph - N/A   Mostly Cloudy
11:30 AM 89.6 °F 96.2 °F 71.6 °F 55% 29.68 in 6.2 mi WSW 9.2 mph - N/A   Mostly Cloudy
12:00 PM 91.4 °F 98.4 °F 71.6 °F 52% 29.65 in 6.2 mi WNW 9.2 mph - N/A   Mostly Cloudy
12:30 PM 91.4 °F 98.4 °F 71.6 °F 52% 29.65 in 6.2 mi West 9.2 mph - N/A   Mostly Cloudy
1:00 PM 92 °F - 72 °F 42% 29.65 in 6 mi WNW 11.5 mph - -   Scattered Clouds
1:00 PM 91.4 °F 98.4 °F 71.6 °F 52% 29.62 in 6.2 mi WNW 11.5 mph - N/A   Mostly Cloudy
1:30 PM 91.4 °F 98.4 °F 71.6 °F 52% 29.62 in 6.2 mi NW 9.2 mph - N/A   Mostly Cloudy
2:00 PM 91.4 °F 98.4 °F 71.6 °F 52% 29.62 in 6.2 mi West 9.2 mph - N/A   Mostly Cloudy
2:30 PM 93.2 °F 102.4 °F 73.4 °F 52% 29.59 in 6.2 mi West 9.2 mph - N/A   Mostly Cloudy
3:00 PM 91.4 °F 100.1 °F 73.4 °F 55% 29.59 in 6.2 mi WNW 10.4 mph - N/A   Mostly Cloudy
3:30 PM 91.4 °F 100.1 °F 73.4 °F 55% 29.56 in 6.2 mi West 11.5 mph - N/A   Mostly Cloudy
4:00 PM 93.2 °F 102.4 °F 73.4 °F 52% 29.56 in 6.2 mi West 8.1 mph - N/A   Mostly Cloudy
4:30 PM 91.4 °F 100.1 °F 73.4 °F 55% 29.59 in 6.2 mi WSW 11.5 mph - N/A   Mostly Cloudy
5:00 PM 87.8 °F 97.6 °F 75.2 °F 66% 29.59 in 6.2 mi SSW 11.5 mph - N/A   Mostly Cloudy
5:30 PM 86.0 °F 96.9 °F 77.0 °F 74% 29.59 in 6.2 mi SSW 13.8 mph - N/A   Mostly Cloudy
6:00 PM 86.0 °F 96.9 °F 77.0 °F 74% 29.59 in 6.2 mi SSW 8.1 mph - N/A Rain Light Rain
6:30 PM 82.4 °F 90.9 °F 77.0 °F 84% 29.62 in 1.9 mi West 23.0 mph - N/A Rain , Thunderstorm Heavy Thunderstorms and Rain
7:00 PM 79 °F - 76 °F 89% 29.64 in 4 mi WSW 9.2 mph - - Rain , Thunderstorm Thunderstorms and Rain
7:00 PM 78.8 °F - 77.0 °F 94% 29.62 in 3.7 mi WSW 9.2 mph - N/A Rain , Thunderstorm Light Thunderstorms and Rain
7:30 PM 78.8 °F - 77.0 °F 94% 29.62 in 6.2 mi SW 6.9 mph - N/A   Mostly Cloudy
8:00 PM 78.8 °F - 77.0 °F 94% 29.65 in 6.2 mi SSW 6.9 mph - N/A   Mostly Cloudy
8:30 PM 78.8 °F - 77.0 °F 94% 29.65 in 6.2 mi WSW 5.8 mph - N/A   Mostly Cloudy
9:00 PM 80.6 °F 87.1 °F 77.0 °F 89% 29.68 in 6.2 mi WSW 5.8 mph - N/A   Mostly Cloudy
9:30 PM 80.6 °F 87.1 °F 77.0 °F 89% 29.68 in 6.2 mi WSW 5.8 mph - N/A   Mostly Cloudy
10:00 PM 80.6 °F 87.1 °F 77.0 °F 89% 29.68 in 6.2 mi WSW 5.8 mph - N/A Rain Light Rain
10:30 PM 80.6 °F 87.1 °F 77.0 °F 89% 29.68 in 6.2 mi WSW 5.8 mph - N/A Rain Light Rain
11:00 PM 80.6 °F 87.1 °F 77.0 °F 89% 29.68 in 6.2 mi WSW 5.8 mph - N/A   Mostly Cloudy
11:30 PM 80.6 °F 87.1 °F 77.0 °F 89% 29.68 in 6.2 mi WSW 5.8 mph - N/A   Mostly Cloudy